TimeEDT,TemperatureF,Dew PointF,Humidity,Sea Level PressureIn,VisibilityMPH,Wind Direction,Wind SpeedMPH,Gust SpeedMPH,PrecipitationIn,Events,Conditions,WindDirDegrees,DateUTC
12:52 AM,46.9,43.0,86,29.93,10.0,SW,4.6,-,N/A,,Mostly Cloudy,230,2013-10-17 04:52:00
1:52 AM,45.0,42.1,90,29.92,10.0,WSW,3.5,-,N/A,,Clear,250,2013-10-17 05:52:00
2:52 AM,42.1,41.0,96,29.93,10.0,Calm,Calm,-,N/A,,Clear,0,2013-10-17 06:52:00
3:52 AM,43.0,41.0,93,29.92,10.0,SW,3.5,-,N/A,,Clear,220,2013-10-17 07:52:00
4:52 AM,42.1,41.0,96,29.91,8.0,SSW,3.5,-,N/A,,Mostly Cloudy,210,2013-10-17 08:52:00
5:52 AM,42.1,41.0,96,29.90,7.0,Calm,Calm,-,N/A,,Partly Cloudy,0,2013-10-17 09:52:00
6:52 AM,41.0,39.9,96,29.91,6.0,Calm,Calm,-,N/A,,Clear,0,2013-10-17 10:52:00
7:52 AM,42.1,41.0,96,29.90,6.0,Calm,Calm,-,N/A,,Clear,0,2013-10-17 11:52:00
8:52 AM,44.1,42.1,93,29.89,7.0,Calm,Calm,-,N/A,,Clear,0,2013-10-17 12:52:00
9:52 AM,46.0,44.1,93,29.91,9.0,SW,4.6,-,N/A,,Clear,220,2013-10-17 13:52:00
10:52 AM,46.9,45.0,93,29.88,9.0,Calm,Calm,-,N/A,,Overcast,0,2013-10-17 14:52:00
11:52 AM,50.0,45.0,83,29.87,10.0,WSW,4.6,-,N/A,,Mostly Cloudy,250,2013-10-17 15:52:00
12:52 PM,48.9,46.0,90,29.87,6.0,SW,6.9,-,0.03,Rain,Light Rain,220,2013-10-17 16:52:00
1:52 PM,48.9,46.9,93,29.85,4.0,SW,9.2,-,0.04,Rain,Light Rain,230,2013-10-17 17:52:00
2:05 PM,48.2,46.4,93,29.83,8.0,SW,8.1,-,0.00,Rain,Light Rain,230,2013-10-17 18:05:00
2:27 PM,48.2,46.4,93,29.82,9.0,SW,8.1,-,0.00,,Overcast,230,2013-10-17 18:27:00
2:43 PM,48.2,46.4,93,29.82,9.0,SW,8.1,-,0.00,,Overcast,220,2013-10-17 18:43:00
2:50 PM,48.2,46.4,93,29.82,6.0,SW,8.1,-,0.00,Rain,Light Rain,230,2013-10-17 18:50:00
2:52 PM,48.9,46.9,93,29.83,6.0,SW,8.1,-,0.00,Rain,Light Rain,230,2013-10-17 18:52:00
3:07 PM,48.2,46.4,93,29.82,2.0,SW,6.9,-,0.00,,Overcast,220,2013-10-17 19:07:00
3:14 PM,48.2,48.2,100,29.82,2.0,SW,6.9,-,0.00,,Overcast,220,2013-10-17 19:14:00
3:21 PM,48.2,48.2,100,29.81,2.5,SSW,8.1,-,0.00,,Overcast,210,2013-10-17 19:21:00
3:32 PM,48.2,48.2,100,29.81,4.0,SW,8.1,-,0.00,,Overcast,230,2013-10-17 19:32:00
3:44 PM,48.2,46.4,93,29.81,9.0,SW,8.1,-,0.00,,Overcast,230,2013-10-17 19:44:00
3:52 PM,50.0,46.9,89,29.81,9.0,SW,9.2,-,0.00,,Overcast,230,2013-10-17 19:52:00
4:52 PM,50.0,46.9,89,29.81,10.0,WSW,11.5,-,N/A,,Overcast,240,2013-10-17 20:52:00
5:00 PM,50.0,46.4,87,29.80,10.0,SW,9.2,-,N/A,,Overcast,230,2013-10-17 21:00:00
5:23 PM,50.0,48.2,94,29.80,10.0,WSW,10.4,-,N/A,,Overcast,240,2013-10-17 21:23:00
5:39 PM,50.0,46.4,87,29.80,10.0,WSW,10.4,-,N/A,,Overcast,240,2013-10-17 21:39:00
5:52 PM,50.0,46.9,89,29.81,10.0,WSW,10.4,-,N/A,,Overcast,240,2013-10-17 21:52:00
6:08 PM,50.0,46.4,87,29.80,10.0,SW,11.5,-,0.00,Rain,Light Rain,230,2013-10-17 22:08:00
6:38 PM,50.0,46.4,87,29.80,10.0,SW,10.4,-,0.00,,Overcast,220,2013-10-17 22:38:00
6:52 PM,50.0,45.0,83,29.82,10.0,SW,11.5,19.6,0.00,,Overcast,230,2013-10-17 22:52:00
7:52 PM,48.9,46.0,90,29.84,10.0,SW,11.5,-,0.01,,Overcast,230,2013-10-17 23:52:00
8:52 PM,48.9,45.0,86,29.86,10.0,WSW,16.1,21.9,0.00,,Overcast,240,2013-10-18 00:52:00
9:52 PM,48.9,45.0,86,29.88,10.0,WSW,13.8,-,N/A,,Overcast,250,2013-10-18 01:52:00
10:19 PM,48.2,44.6,87,29.88,10.0,WSW,13.8,-,N/A,,Overcast,250,2013-10-18 02:19:00
10:52 PM,48.9,43.0,80,29.89,10.0,West,16.1,21.9,N/A,,Overcast,260,2013-10-18 02:52:00
11:52 PM,48.0,43.0,83,29.89,10.0,WSW,10.4,-,N/A,,Overcast,250,2013-10-18 03:52:00